Date String (YYYY-MM-DD hh:mm:ss) UTC,Instrument flags,absolute air pressure of the measurement (hPa),sample flow rate (lpm),inlet stack bypass flow (lpm),air temperature of the measurement (°C),ambient temperature measured by the external sensor (°C),aerosol sample conditioner tube jacket temperature (°C),OPC LED temperature (°C),internal box temperature (°C),relative humidity of the measurement (%),span deviation,mass concentration of particles derived from Lorenz-Mie calculation of OPC scattering (μg/m³),mass concentration of particles derived from Lorenz-Mie calculation of OPC scattering (μg/m³),mass concentration of particles derived from Lorenz-Mie calculation of OPC scattering (μg/m³)
DateTimeUTC,F1_M11,P_M11,Q1_M11,Q2_M11,T1_M11,T2_M11,T3_M11,T4_M11,T5_M11,U1_M11,ZSPAN_M11,X0_M11,X2_M11,X1_M11
2023-07-09 13:00:00,SystemResetWarning,0832.2,4.99,000.00,031.0,028.8,000.0,039.1,031.8,34.8,-002.0,0013.67,0008.11,0007.25
2023-07-09 13:01:00,SystemResetWarning,0832.1,4.99,000.00,031.0,028.8,000.0,039.1,031.8,34.7,-002.3,0014.19,0008.11,0007.23
2023-07-09 13:02:00,SystemResetWarning,0831.9,5.01,000.00,031.0,028.9,000.0,039.2,031.8,34.9,-002.1,0013.80,0008.08,0007.23
2023-07-09 13:03:00,SystemResetWarning,0831.8,5.01,000.00,031.0,028.9,000.0,039.2,031.9,34.8,-001.6,0013.72,0008.05,0007.21
2023-07-09 13:04:00,SystemResetWarning,0831.7,4.99,000.00,031.0,028.9,000.0,039.2,031.9,34.8,-001.2,0013.70,0008.07,0007.21
2023-07-09 13:05:00,SystemResetWarning,0831.7,4.99,000.00,031.0,027.6,000.0,039.1,031.8,34.8,-000.9,0013.69,0008.06,0007.19
2023-07-09 13:06:00,SystemResetWarning,0831.6,4.99,000.00,030.9,025.8,000.0,039.0,031.6,35.0,-000.8,0013.70,0008.05,0007.17
2023-07-09 13:07:00,SystemResetWarning,0831.7,5.03,000.00,030.9,025.2,000.0,038.9,031.4,34.8,-000.7,0014.00,0008.02,0007.15
2023-07-09 13:08:00,SystemResetWarning,0831.6,4.97,000.00,030.9,025.4,000.0,038.9,031.1,35.1,-000.1,0014.21,0007.99,0007.11
2023-07-09 13:09:00,SystemResetWarning,0831.6,5.05,000.00,030.9,025.8,000.0,039.0,031.1,35.1,-000.2,0014.06,0007.98,0007.10
2023-07-09 13:10:00,SystemResetWarning,0831.7,4.95,000.00,031.0,026.2,000.0,039.0,031.3,34.1,-000.3,0013.83,0007.97,0007.10
2023-07-09 13:11:00,SystemResetWarning,0831.6,5.03,000.00,031.1,026.6,000.0,039.0,031.3,33.8,-001.0,0013.75,0008.01,0007.12
2023-07-09 13:12:00,SystemResetWarning,0831.7,4.99,000.00,031.2,027.0,000.0,039.0,031.4,33.8,-001.1,0013.12,0007.97,0007.12
2023-07-09 13:13:00,SystemResetWarning,0831.7,4.99,000.00,031.2,027.3,000.0,039.1,031.4,33.6,-000.8,0013.07,0007.92,0007.10
2023-07-09 13:14:00,SystemResetWarning,0831.7,5.00,000.00,031.2,027.5,000.0,039.1,031.4,33.4,-001.4,0013.13,0007.91,0007.09
2023-07-09 13:15:00,SystemResetWarning,0831.7,5.01,000.00,031.2,027.7,000.0,039.2,031.5,33.3,-001.7,0013.15,0007.83,0007.03
2023-07-09 13:16:00,SystemResetWarning,0831.7,5.01,000.00,031.2,027.9,000.0,039.2,031.5,33.5,-001.6,0013.31,0007.73,0006.97
2023-07-09 13:17:00,SystemResetWarning,0831.7,5.00,000.00,031.2,028.1,000.0,039.3,031.5,33.0,-001.8,0013.13,0007.65,0006.90
2023-07-09 13:18:00,SystemResetWarning,0831.7,4.99,000.00,031.2,028.2,000.0,039.3,031.6,33.2,-001.9,0012.59,0007.55,0006.83
2023-07-09 13:19:00,SystemResetWarning,0831.7,5.00,000.00,031.2,028.3,000.0,039.3,031.6,33.4,-001.8,0012.73,0007.44,0006.77
2023-07-09 13:20:00,SystemResetWarning,0831.9,5.01,000.00,031.2,028.4,000.0,039.3,031.6,33.4,-001.8,0012.85,0007.34,0006.70
2023-07-09 13:21:00,SystemResetWarning,0832.0,5.01,000.00,031.2,028.4,000.0,039.3,031.6,33.3,-001.5,0012.53,0007.25,0006.64
2023-07-09 13:22:00,SystemResetWarning,0832.2,4.99,000.00,031.1,028.5,000.0,039.4,031.7,32.7,-001.0,0012.35,0007.16,0006.59
2023-07-09 13:23:00,SystemResetWarning,0831.9,5.00,000.00,031.1,028.6,000.0,039.4,031.7,32.2,-001.0,0012.45,0007.17,0006.55
2023-07-09 13:24:00,SystemResetWarning,0831.7,4.99,000.00,031.1,028.6,000.0,039.4,031.7,31.9,-001.2,0012.59,0007.19,0006.55
2023-07-09 13:25:00,SystemResetWarning,0831.7,5.01,000.00,031.1,028.6,000.0,039.4,031.7,31.6,-001.2,0012.83,0007.22,0006.56
2023-07-09 13:26:00,SystemResetWarning,0831.8,5.01,000.00,031.1,028.7,000.0,039.4,031.8,30.9,-001.2,0012.51,0007.27,0006.61
2023-07-09 13:27:00,SystemResetWarning,0831.9,5.00,000.00,031.1,028.7,000.0,039.4,031.8,31.1,-001.2,0012.74,0007.40,0006.71
2023-07-09 13:28:00,SystemResetWarning,0832.2,4.99,000.00,031.1,028.8,000.0,039.4,031.8,31.3,-001.2,0013.20,0007.49,0006.78
2023-07-09 13:29:00,SystemResetWarning,0832.2,4.99,000.00,031.1,028.8,000.0,039.4,031.8,31.4,-001.0,0014.61,0007.57,0006.82
2023-07-09 13:30:00,SystemResetWarning,0831.8,5.00,000.00,031.1,028.8,000.0,039.4,031.8,31.1,-001.2,0014.88,0007.62,0006.81
2023-07-09 13:31:00,SystemResetWarning,0831.8,5.00,000.00,031.0,028.8,000.0,039.4,031.9,31.1,-001.3,0014.26,0007.61,0006.76
2023-07-09 13:32:00,SystemResetWarning,0831.8,4.99,000.00,031.0,028.9,000.0,039.4,031.9,31.0,-001.4,0014.71,0007.59,0006.67
2023-07-09 13:33:00,SystemResetWarning,0831.9,5.00,000.00,031.0,028.9,000.0,039.4,031.9,30.6,-001.6,0015.34,0007.54,0006.58
2023-07-09 13:34:00,SystemResetWarning,0831.9,5.00,000.00,031.0,028.9,000.0,039.4,031.9,30.6,-001.6,0015.20,0007.44,0006.49
2023-07-09 13:35:00,SystemResetWarning,0831.8,5.00,000.00,031.0,028.3,000.0,039.4,031.9,30.3,-001.7,0015.68,0007.33,0006.39
2023-07-09 13:36:00,SystemResetWarning,0831.8,4.99,000.00,031.0,026.4,000.0,039.2,031.7,30.4,-001.9,0016.21,0007.20,0006.26
2023-07-09 13:37:00,SystemResetWarning,0832.4,5.00,000.00,030.9,025.3,000.0,039.1,031.5,30.6,-002.1,0016.93,0007.07,0006.10
2023-07-09 13:38:00,SystemResetWarning,0832.3,5.01,000.00,030.8,025.2,000.0,039.0,031.2,31.1,-002.2,0017.43,0006.91,0005.93
2023-07-09 13:39:00,SystemResetWarning,0832.0,5.01,000.00,030.6,025.6,000.0,039.0,031.0,31.2,-002.2,0017.36,0006.81,0005.77
2023-07-09 13:40:00,SystemResetWarning,0832.0,4.99,000.00,030.5,026.0,000.0,039.0,031.0,31.7,-002.4,0016.67,0006.70,0005.63
2023-07-09 13:41:00,SystemResetWarning,0831.7,5.00,000.00,030.4,026.4,000.0,039.0,031.1,31.5,-002.9,0015.74,0006.62,0005.55
2023-07-09 13:42:00,SystemResetWarning,0831.7,5.00,000.00,030.4,026.8,000.0,039.0,031.2,30.9,-002.6,0016.36,0006.58,0005.51
2023-07-09 13:43:00,SystemResetWarning,0831.7,5.00,000.00,030.3,027.1,000.0,039.0,031.2,31.0,-002.7,0016.27,0006.53,0005.48
2023-07-09 13:44:00,SystemResetWarning,0831.7,5.00,000.00,030.3,027.4,000.0,038.9,031.3,31.3,-002.7,0015.43,0006.48,0005.46
2023-07-09 13:45:00,SystemResetWarning,0831.7,5.00,000.00,030.3,027.6,000.0,038.9,031.3,31.4,-002.5,0015.72,0006.47,0005.44
2023-07-09 13:46:00,SystemResetWarning,0831.8,5.00,000.00,030.3,027.8,000.0,038.9,031.3,31.0,-002.2,0015.64,0006.48,0005.41
2023-07-09 13:47:00,SystemResetWarning,0832.2,4.99,000.00,030.3,028.0,000.0,038.9,031.3,30.9,-002.1,0014.65,0006.44,0005.39
2023-07-09 13:48:00,SystemResetWarning,0831.8,5.01,000.00,030.3,028.1,000.0,038.9,031.4,31.3,-002.2,0013.63,0006.36,0005.37
2023-07-09 13:49:00,SystemResetWarning,0831.8,5.01,000.00,030.3,028.2,000.0,038.9,031.4,30.9,-000.8,0012.98,0006.34,0005.36
2023-07-09 13:50:00,SystemResetWarning,0831.9,5.01,000.00,030.3,028.3,000.0,038.9,031.4,30.4,-001.1,0012.09,0006.30,0005.34
2023-07-09 13:51:00,SystemResetWarning,0831.9,4.98,000.00,030.3,028.4,000.0,038.8,031.4,30.9,0000.0,0011.97,0006.24,0005.32
2023-07-09 13:52:00,SystemResetWarning,0831.9,5.00,000.00,030.3,028.4,000.0,038.8,031.5,31.0,0000.0,0011.95,0006.19,0005.29
2023-07-09 13:53:00,SystemResetWarning,0832.0,5.00,000.00,030.3,028.5,000.0,038.8,031.5,30.5,0000.0,0012.13,0006.14,0005.26
2023-07-09 13:54:00,SystemResetWarning,0832.0,5.01,000.00,030.3,028.6,000.0,038.8,031.5,30.4,0000.0,0012.55,0006.15,0005.24
2023-07-09 13:55:00,SystemResetWarning,0832.0,5.01,000.00,030.3,028.6,000.0,038.8,031.5,31.2,0000.0,0012.67,0006.20,0005.23
2023-07-09 13:56:00,SystemResetWarning,0832.0,5.00,000.00,030.3,028.6,000.0,038.8,031.6,30.7,-000.3,0012.46,0006.19,0005.21
2023-07-09 13:57:00,SystemResetWarning,0832.0,4.99,000.00,030.3,028.7,000.0,038.8,031.6,31.2,-000.4,0012.23,0006.13,0005.20
2023-07-09 13:58:00,SystemResetWarning,0831.9,5.00,000.00,030.3,028.7,000.0,038.8,031.6,31.6,-001.0,0012.71,0006.11,0005.18
2023-07-09 13:59:00,SystemResetWarning,0831.9,5.00,000.00,030.4,028.7,000.0,038.8,031.6,31.6,-000.6,0012.72,0006.09,0005.17
